Location: Newark
(45.6000°N, 12.8833°E)
Time: 18:52:44
(UTC+00:00)

Transit 4A - Visible Passes

Search period start: 21 November 2019 00:00
Search period end: 01 December 2019 00:00
Orbit: 869 x 976 km, 66.8° (Epoch: 21 November)

Date Brightness Start Highest point End Pass type
(mag) Time Alt. Az. Time Alt. Az. Time Alt. Az.
21 Nov 10.5 02:10:01 10° NNE 02:10:01 10° NNE 02:10:35 10° NNE visible
21 Nov 9.5 03:53:32 13° NNW 03:57:53 28° NE 04:02:51 10° E visible
21 Nov 7.9 05:38:53 10° NW 05:44:44 66° WSW 05:50:28 10° SSE visible
22 Nov 10.3 02:19:27 12° NNE 02:19:27 12° NNE 02:21:42 10° NE visible
22 Nov 9.0 04:02:59 14° NNW 04:07:30 37° NE 04:12:51 10° ESE visible
23 Nov 10.1 02:28:56 15° NNE 02:29:09 15° NNE 02:32:27 10° ENE visible
23 Nov 8.5 04:12:28 16° NNW 04:17:01 50° NE 04:22:39 10° SE visible
24 Nov 9.9 02:38:29 18° NNE 02:38:58 19° NNE 02:43:00 10° ENE visible
24 Nov 8.0 04:22:01 18° NNW 04:26:27 70° NE 04:32:15 10° SE visible
25 Nov 9.6 02:48:07 23° NNE 02:48:43 24° NE 02:53:21 10° E visible
25 Nov 7.7 04:31:39 21° NW 04:35:48 83° WSW 04:41:36 10° SSE visible
26 Nov 9.2 02:57:48 30° NNE 02:58:22 31° NE 03:03:28 10° ESE visible
26 Nov 7.8 04:41:21 22° NW 04:45:04 57° WSW 04:50:44 10° SSE visible
27 Nov 8.8 03:07:35 41° NE 03:07:56 41° NE 03:13:24 10° ESE visible
27 Nov 8.3 04:51:09 22° WNW 04:54:16 39° WSW 04:59:35 10° S visible
27 Nov 9.9 18:11:37 10° S 18:12:33 14° SSE 18:12:33 14° SSE visible
28 Nov 8.2 03:17:27 57° NE 03:17:27 57° NE 03:23:08 10° SE visible
28 Nov 8.7 05:01:02 20° WNW 05:03:23 27° WSW 05:08:07 10° SSW visible
28 Nov 9.4 18:20:21 10° S 18:22:43 23° S 18:22:43 23° S visible
29 Nov 7.9 03:27:24 71° ESE 03:27:24 71° ESE 03:32:37 10° SE visible
29 Nov 9.2 05:10:59 16° W 05:12:25 18° WSW 05:16:09 10° SW visible
29 Nov 9.7 16:48:14 10° ESE 16:49:14 11° ESE 16:49:14 11° ESE visible
29 Nov 9.0 18:29:22 10° SSW 18:32:48 34° SSW 18:32:48 34° SSW visible
30 Nov 10.6 01:53:51 11° E 01:53:51 11° E 01:54:01 10° E visible
30 Nov 8.1 03:37:26 54° S 03:37:26 54° S 03:41:55 10° SSE visible
30 Nov 9.6 05:21:00 11° W 05:21:24 11° W 05:23:01 10° WSW visible
30 Nov 9.3 16:55:13 10° SE 16:59:15 18° ESE 16:59:16 18° ESE visible
30 Nov 8.7 18:38:38 10° SSW 18:42:51 45° SW 18:42:51 45° SW visible
